Lexington Weather

Lexington, Massachusetts, USA

78°F
7/25/2024 12:58pm 
  • Lexington Conditions: Mostly cloudy
  • Temperature: 78.3°F / 25.7°CWarmer 0.6°F than last hour.
  • Dew Point: 72.7°FIncreased 0.2°Fsince last hour.
  • Relative Humidity: 83%Decreased 1.0% since last hour.
  • Wind: Wind from WSW WSW 1 mph, 10-min avg: 1 mph, gust: 4 mph
  • Barometer: 29.93 in Steady
  • Visibility: 10 miles
  • Rain Today: 0.00 in
  •   

Regional Weather Roundup
for Boston, MA

        
000
ASUS41 KBOX 251610
RWRBOX

REGIONAL WEATHER ROUNDUP
NATIONAL WEATHER SERVICE BOSTON/NORTON MA
1200 PM EDT THU JUL 25 2024

NOTE:  "FAIR" INDICATES FEW OR NO CLOUDS BELOW 12,000 FEET WITH NO 
SIGNIFICANT WEATHER AND/OR OBSTRUCTIONS TO VISIBILITY.

MAZALL-251700-
EASTERN MASSACHUSETTS
  
CITY           SKY/WX    TMP DP  RH WIND       PRES   REMARKS
BOSTON         CLOUDY    78  69  73 SW15G21   30.00F                  
BEVERLY        CLOUDY    75  69  81 SE7       29.99F                  
LAWRENCE       CLOUDY    78  70  76 SW8       30.01F                  
BEDFORD        CLOUDY    79  70  74 S13       29.98F                  
NORWOOD        CLOUDY    79  73  82 S8        30.01F                  
MARSHFIELD     CLOUDY    77  72  83 VRB7G14   30.00F                  
PLYMOUTH       CLOUDY    79  71  76 SW8       30.02F                  
TAUNTON        CLOUDY    79  71  76 VRB6      30.02F                  
NEW BEDFORD    CLOUDY    77  73  87 S6        30.02F                  
$$

MAZALL-251700-
CAPE COD AND THE ISLANDS
  
CITY           SKY/WX    TMP DP  RH WIND       PRES   REMARKS
FALMOUTH       CLOUDY    75  72  88 SW14      30.05F                  
HYANNIS        CLOUDY    75  71  87 SW9       30.03R                  
CHATHAM        CLOUDY    74  70  87 MISG      30.04F                  
PROVINCETOWN   CLOUDY    76  73  91 S9        30.03F                  
NANTUCKET      FOG       69  69 100 S8        30.05S VSB 1/2          
MARTHAS VNYRD  CLOUDY    76  71  85 S8        30.03F                  
$$
 
MAZALL-251700-
CENTRAL AND WESTERN MASSACHUSETTS
  
CITY           SKY/WX    TMP DP  RH WIND       PRES   REMARKS
WORCESTER      CLOUDY    76  69  79 W9        30.04F                  
FITCHBURG      CLOUDY    80  69  69 W8        30.00F                  
ORANGE         CLOUDY    76  68  76 MISG      30.02F                  
SPRINGFIELD    PTSUNNY   79  66  64 W7        29.98F                  
WESTFIELD      PTSUNNY   81  65  58 NW9       30.02S                  
NORTH ADAMS    PTSUNNY   76  60  57 W12G20    30.04F                  
PITTSFIELD     PTSUNNY   75  60  59 W9        30.06F                  
$$
 
RIZALL-251700-
RHODE ISLAND
  
CITY           SKY/WX    TMP DP  RH WIND       PRES   REMARKS
PROVIDENCE     CLOUDY    77  72  84 S10       30.02F                  
NEWPORT        CLOUDY    74  72  93 S8        30.03F                  
BLOCK ISLAND   CLOUDY    75  72  90 SW10        N/A                   
SMITHFIELD     CLOUDY    76  73  91 VRB3      30.04F                  
WESTERLY       CLOUDY    76  72  87 SW5       30.03F                  
$$
 
CTZALL-251700-
CONNECTICUT
  
CITY           SKY/WX    TMP DP  RH WIND       PRES   REMARKS
BRADLEY INTL   CLOUDY    82  67  60 W10       30.02F                  
HARTFORD       CLOUDY    80  71  74 S3        30.01F                  
PLAINVILLE     CLOUDY    79  71  74 CALM      30.02F                  
BRIDGEPORT     CLOUDY    77  72  84 SW10      30.03F                  
DANBURY        CLOUDY    78  68  71 W7        30.06S                  
GROTON         FOG       76  74  93 SW6       30.02F VSB 1            
NEW HAVEN      CLOUDY    79  75  87 SW7       30.03F                  
CHESTER        CLOUDY    77  73  88 S7        30.05S                  
MERIDEN        CLOUDY    79  68  69 VRB5      30.02F                  
WILLIMANTIC    CLOUDY    77  70  79 VRB3      30.04R                  
OXFORD         CLOUDY    75  70  84 CALM      30.07S                  
$$

MEZ002-015-021-024-NHZ003-005-008-011-012-014-VTZ005-008-251700-
NORTHERN NEW ENGLAND
  
CITY           SKY/WX    TMP DP  RH WIND       PRES   REMARKS
PORTLAND ME    CLOUDY    70  69  97 S7        29.98F                  
BANGOR ME      CLOUDY    66  64  93 S8        29.98F FOG              
CONCORD NH     CLOUDY    77  70  79 CALM      29.98F                  
MANCHESTER NH  PTSUNNY   82  69  64 S8        29.97F                  
NASHUA NH      CLOUDY    80  76  87 VRB5      29.99F                  
PORTSMOUTH NH  CLOUDY    75  70  85 CALM      29.98F                  
JAFFREY NH     CLOUDY    79  65  62 W8        30.03F                  
KEENE NH       CLOUDY    78  63  59 W10       30.01S                  
BURLINGTON VT  PTSUNNY   80  57  45 W12G20    29.97S                  
MT. WASHINGTON LGT RAIN  52  52 100 SW30G37     N/A  VSB 0            
$$

NYZ052-076-251700-
EASTERN NEW YORK
  
CITY           SKY/WX    TMP DP  RH WIND       PRES   REMARKS
ALBANY         PTSUNNY   78  61  55 VRB7G17   30.04F                  
NEW YORK CITY  CLOUDY    78  65  63 NW8       30.06R                  
$$
 
ANZALL-251700-
MARINE OBSERVATIONS
  
STATION/POSITION TIME  TEMP    WIND        PRES    VSBY  WAVE
                       AIR SEA DIR/SP/G                  HT/PER
                 (UTC) (F)     (DEG/KT/KT) (MB)    (MI)  (FT/S)
BOSTON BUOY      1550   65 65  160/  8/  8 1016.1F         2/ 6
BUZZARDS BAY     1500   71     190/  9/  9 1017.6F
NANTUCKET SOUND  1550   71 75  210/ 12/ 14 1016.7F         1
MASS BAY-STELLWA 1404   65 64  190/  4/  6 1017.2F   3/16  2/ 8
ISLE OF SHOALS   1500   66     180/ 13/ 14 1015.6F
S OF BLOCK IS    1526      71                N/A           4/ 8
$$

......................KEY.........................
  SKY/WX - SKY CONDITION/PRESENT WEATHER
  TMP    - TEMPERATURE IN FAHRENHEIT
  DWPT   - DEWPOINT IN FAHRENHEIT
  RH     - RELATIVE HUMIDITY IN PERCENT
  WIND   - DIRECTION AND SPEED IN MPH
  PRES   - MEAN SEA LEVEL PRESSURE IN INCHES OF HG
  WCI    - WIND CHILL INDEX
  VSB    - VISIBILITY IN MILES
  HX     - HEAT INDEX
  TC     - TEMPERATURE IN CELSIUS
  VRB    - VARIABLE WIND DIRECTION
  N/A    - NOT AVAILABLE
  
      

Other recent Regional Weather Roundups

Thu Jul 25, 11:10am EDT

Thu Jul 25, 10:10am EDT

Thu Jul 25, 9:10am EDT

Thu Jul 25, 8:10am EDT

Thu Jul 25, 7:10am EDT

Thu Jul 25, 6:10am EDT

Thu Jul 25, 5:10am EDT

Thu Jul 25, 4:10am EDT

Thu Jul 25, 3:10am EDT

Thu Jul 25, 2:10am EDT

Thu Jul 25, 1:10am EDT

Thu Jul 25, 12:10am EDT

Wed Jul 24, 11:10pm EDT

Wed Jul 24, 10:10pm EDT

Wed Jul 24, 9:10pm EDT

Wed Jul 24, 8:10pm EDT

Wed Jul 24, 7:10pm EDT

Wed Jul 24, 6:10pm EDT

Wed Jul 24, 5:10pm EDT

Wed Jul 24, 4:10pm EDT

Wed Jul 24, 3:10pm EDT

Wed Jul 24, 2:10pm EDT

Wed Jul 24, 1:10pm EDT

Wed Jul 24, 12:10pm EDT

Wed Jul 24, 11:10am EDT

Wed Jul 24, 10:10am EDT

Wed Jul 24, 9:10am EDT

Wed Jul 24, 8:10am EDT

Wed Jul 24, 7:10am EDT

Wed Jul 24, 6:10am EDT

Wed Jul 24, 5:10am EDT

Wed Jul 24, 4:10am EDT

Wed Jul 24, 3:10am EDT

Wed Jul 24, 2:10am EDT

Wed Jul 24, 1:10am EDT

Wed Jul 24, 12:10am EDT

Tue Jul 23, 11:10pm EDT

Tue Jul 23, 10:10pm EDT

Tue Jul 23, 9:10pm EDT

Tue Jul 23, 8:10pm EDT

Tue Jul 23, 7:10pm EDT

Tue Jul 23, 6:10pm EDT

Tue Jul 23, 5:10pm EDT

Tue Jul 23, 4:10pm EDT

Tue Jul 23, 3:10pm EDT

Tue Jul 23, 2:10pm EDT

Tue Jul 23, 1:10pm EDT

Tue Jul 23, 12:10pm EDT

Tue Jul 23, 11:10am EDT

Tue Jul 23, 10:10am EDT

Tue Jul 23, 10:10am EDT

Tue Jul 23, 9:10am EDT

Tue Jul 23, 8:10am EDT

Tue Jul 23, 7:10am EDT

Tue Jul 23, 6:10am EDT

Tue Jul 23, 5:10am EDT

Tue Jul 23, 4:10am EDT

Tue Jul 23, 3:10am EDT

Tue Jul 23, 2:10am EDT

Tue Jul 23, 1:10am EDT

Tue Jul 23, 12:10am EDT

Mon Jul 22, 11:10pm EDT

Mon Jul 22, 10:10pm EDT

Mon Jul 22, 9:10pm EDT

Mon Jul 22, 8:10pm EDT

Mon Jul 22, 7:10pm EDT

Mon Jul 22, 6:10pm EDT

Mon Jul 22, 5:10pm EDT

Mon Jul 22, 4:10pm EDT

Mon Jul 22, 3:10pm EDT

Mon Jul 22, 2:10pm EDT

Mon Jul 22, 1:10pm EDT

Mon Jul 22, 12:10pm EDT

Mon Jul 22, 11:10am EDT

Mon Jul 22, 10:10am EDT

Mon Jul 22, 9:10am EDT

Mon Jul 22, 8:10am EDT

Mon Jul 22, 7:10am EDT

Mon Jul 22, 6:10am EDT

Mon Jul 22, 5:10am EDT

Mon Jul 22, 4:10am EDT

Mon Jul 22, 3:10am EDT

Mon Jul 22, 2:10am EDT

Mon Jul 22, 1:10am EDT

Mon Jul 22, 12:10am EDT

Sun Jul 21, 11:10pm EDT

Sun Jul 21, 10:10pm EDT

Sun Jul 21, 9:10pm EDT

Sun Jul 21, 8:10pm EDT

Sun Jul 21, 7:10pm EDT

Sun Jul 21, 6:10pm EDT

Sun Jul 21, 5:10pm EDT

Sun Jul 21, 4:10pm EDT

Sun Jul 21, 3:10pm EDT

Sun Jul 21, 2:10pm EDT

Sun Jul 21, 1:10pm EDT

Sun Jul 21, 12:10pm EDT

Sun Jul 21, 11:10am EDT

Sun Jul 21, 10:10am EDT

Sun Jul 21, 9:10am EDT

Sun Jul 21, 8:10am EDT

Sun Jul 21, 7:10am EDT

Sun Jul 21, 6:10am EDT

Sun Jul 21, 5:10am EDT

Sun Jul 21, 4:10am EDT

Sun Jul 21, 3:10am EDT

Sun Jul 21, 2:10am EDT

Sun Jul 21, 1:10am EDT

Sun Jul 21, 12:10am EDT

Sat Jul 20, 11:10pm EDT

Sat Jul 20, 10:10pm EDT

Sat Jul 20, 9:10pm EDT

Sat Jul 20, 8:10pm EDT

Sat Jul 20, 7:10pm EDT

Sat Jul 20, 6:10pm EDT

Sat Jul 20, 5:10pm EDT

Sat Jul 20, 4:10pm EDT

Sat Jul 20, 3:10pm EDT

Sat Jul 20, 2:10pm EDT

Sat Jul 20, 1:10pm EDT

Sat Jul 20, 12:10pm EDT

Sat Jul 20, 11:10am EDT

Sat Jul 20, 10:10am EDT

Sat Jul 20, 9:10am EDT

Sat Jul 20, 8:10am EDT

Sat Jul 20, 7:10am EDT

Sat Jul 20, 6:10am EDT

Sat Jul 20, 5:10am EDT

Sat Jul 20, 4:10am EDT

Sat Jul 20, 3:10am EDT

Sat Jul 20, 2:10am EDT

Sat Jul 20, 1:10am EDT

Sat Jul 20, 12:10am EDT

Fri Jul 19, 11:10pm EDT

Fri Jul 19, 10:10pm EDT

Fri Jul 19, 9:10pm EDT

Fri Jul 19, 8:10pm EDT

Fri Jul 19, 7:10pm EDT

Fri Jul 19, 6:10pm EDT

Fri Jul 19, 5:10pm EDT

Fri Jul 19, 4:10pm EDT

Fri Jul 19, 3:10pm EDT

Fri Jul 19, 2:10pm EDT

Fri Jul 19, 1:10pm EDT

Fri Jul 19, 12:10pm EDT

Fri Jul 19, 11:10am EDT

Fri Jul 19, 10:10am EDT

Fri Jul 19, 9:10am EDT

Fri Jul 19, 8:10am EDT

Fri Jul 19, 7:10am EDT

Fri Jul 19, 6:10am EDT

Fri Jul 19, 5:10am EDT

Fri Jul 19, 4:10am EDT

Fri Jul 19, 3:10am EDT

Fri Jul 19, 2:10am EDT

Fri Jul 19, 1:10am EDT

Fri Jul 19, 12:10am EDT

Thu Jul 18, 11:10pm EDT

Thu Jul 18, 10:10pm EDT

Thu Jul 18, 9:10pm EDT

Thu Jul 18, 8:10pm EDT

Thu Jul 18, 7:10pm EDT

Thu Jul 18, 6:10pm EDT

Thu Jul 18, 5:10pm EDT

Thu Jul 18, 4:10pm EDT

Thu Jul 18, 3:10pm EDT

Thu Jul 18, 2:10pm EDT

Thu Jul 18, 1:10pm EDT